COSMOS 2058

Last updated on Thu Mar 05 2026 00:02:21 GMT+0000 (Coordinated Universal Time)

1 20465U 90010A 26063.41753029 .00006484 00000+0 38343-3 0 9990 2 20465 82.4667 52.6218 0009768 0.8805 359.2440 15.11265820941447
UTC large
Height (km)
Speed (km/s)
/
Latitude / Longitude
Inclination (degrees)
Orbital Period (minutes)
Azimuth
Elevation
Range (km)
Doppler Factor

Next 0 passes for location: London (51.5072 / 0.1276)

Sorry there are no passes over London.